| time (UTC) | temp C | wind direction | speed KPH | gust KPH | rain 1hr cm | rain 24hr cm | rain mn cm | humidity % | barometer mb |
| 20260506193004 | 16 | 360 | 1.6 | 8.0 | 0.00 | 0.00 | 0.00 | 54 | 1018.3 |
| 20260506192503 | 16 | 360 | 1.6 | 6.4 | 0.00 | 0.00 | 0.00 | 55 | 1018.3 |
| 20260506192003 | 16 | 360 | 1.6 | 6.4 | 0.00 | 0.00 | 0.00 | 55 | 1018.3 |
| 20260506191505 | 16 | 360 | 3.2 | 6.4 | 0.00 | 0.00 | 0.00 | 56 | 1018.2 |
| 20260506191005 | 16 | 360 | 3.2 | 9.7 | 0.00 | 0.00 | 0.00 | 56 | 1018.1 |
| 20260506190505 | 16 | 360 | 3.2 | 9.7 | 0.00 | 0.00 | 0.00 | 56 | 1018.1 |
| 20260506190007 | 17 | 360 | 4.8 | 8.0 | 0.00 | 0.00 | 0.00 | 56 | 1018.1 |
| 20260506185508 | 17 | 360 | 3.2 | 8.0 | 0.00 | 0.00 | 0.00 | 56 | 1018.0 |
| 20260506185006 | 17 | 360 | 1.6 | 8.0 | 0.00 | 0.00 | 0.00 | 56 | 1017.9 |
| 20260506184512 | 17 | 360 | 3.2 | 9.7 | 0.00 | 0.00 | 0.00 | 56 | 1017.9 |
| 20260506184010 | 17 | 360 | 4.8 | 9.7 | 0.00 | 0.00 | 0.00 | 55 | 1017.8 |
| 20260506183507 | 17 | 360 | 4.8 | 9.7 | 0.00 | 0.00 | 0.00 | 56 | 1017.7 |
| 20260506183019 | 17 | 360 | 3.2 | 8.0 | 0.00 | 0.00 | 0.00 | 55 | 1017.6 |
| 20260506182505 | 17 | 360 | 3.2 | 8.0 | 0.00 | 0.00 | 0.00 | 55 | 1017.5 |
| 20260506182009 | 17 | 360 | 4.8 | 8.0 | 0.00 | 0.00 | 0.00 | 55 | 1017.5 |
| 20260506181505 | 17 | 360 | 3.2 | 8.0 | 0.00 | 0.00 | 0.00 | 55 | 1017.4 |
| 20260506181004 | 17 | 360 | 0.0 | 6.4 | 0.00 | 0.00 | 0.00 | 54 | 1017.4 |
| 20260506180504 | 18 | 360 | 3.2 | 8.0 | 0.00 | 0.00 | 0.00 | 53 | 1017.4 |
| 20260506180016 | 18 | 360 | 3.2 | 8.0 | 0.00 | 0.00 | 0.00 | 53 | 1017.3 |
| 20260506175503 | 18 | 360 | 3.2 | 8.0 | 0.00 | 0.00 | 0.00 | 53 | 1017.3 |
| 20260506175004 | 18 | 360 | 0.0 | 8.0 | 0.00 | 0.00 | 0.00 | 52 | 1017.2 |
| 20260506174511 | 18 | 360 | 1.6 | 8.0 | 0.00 | 0.00 | 0.00 | 52 | 1017.2 |
| 20260506174006 | 18 | 360 | 3.2 | 6.4 | 0.00 | 0.00 | 0.00 | 51 | 1017.1 |
| 20260506173505 | 19 | 360 | 1.6 | 6.4 | 0.00 | 0.00 | 0.00 | 51 | 1017.1 |
| 20260506173015 | 19 | 360 | 0.0 | 6.4 | 0.00 | 0.00 | 0.00 | 50 | 1017.1 |
| 20260506172507 | 20 | 360 | 1.6 | 6.4 | 0.00 | 0.00 | 0.00 | 49 | 1017.2 |
| 20260506172008 | 20 | 360 | 3.2 | 6.4 | 0.00 | 0.00 | 0.00 | 49 | 1017.1 |
| 20260506171522 | 20 | 360 | 1.6 | 4.8 | 0.00 | 0.00 | 0.00 | 47 | 1017.1 |
| 20260506171006 | 20 | 360 | 0.0 | 4.8 | 0.00 | 0.00 | 0.00 | 47 | 1017.1 |
| 20260506170511 | 21 | 360 | 1.6 | 4.8 | 0.00 | 0.00 | 0.00 | 46 | 1016.9 |
| 20260506170004 | 21 | 360 | 1.6 | 6.4 | 0.00 | 0.00 | 0.00 | 45 | 1016.9 |
| 20260506165503 | 21 | 360 | 3.2 | 6.4 | 0.00 | 0.00 | 0.00 | 44 | 1016.8 |
| 20260506165005 | 22 | 360 | 1.6 | 4.8 | 0.00 | 0.00 | 0.00 | 42 | 1016.7 |
| 20260506164509 | 22 | 360 | 0.0 | 3.2 | 0.00 | 0.00 | 0.00 | 40 | 1016.7 |
| 20260506164008 | 22 | 360 | 0.0 | 3.2 | 0.00 | 0.00 | 0.00 | 40 | 1016.7 |
| 20260506163503 | 22 | 319 | 0.0 | 4.8 | 0.00 | 0.00 | 0.00 | 39 | 1016.7 |
| 20260506163010 | 22 | 360 | 0.0 | 4.8 | 0.00 | 0.00 | 0.00 | 40 | 1016.7 |
| 20260506162503 | 22 | 360 | 1.6 | 6.4 | 0.00 | 0.00 | 0.00 | 40 | 1016.7 |
| 20260506162006 | 22 | 335 | 1.6 | 6.4 | 0.00 | 0.00 | 0.00 | 38 | 1016.7 |
| 20260506161527 | 23 | 352 | 3.2 | 4.8 | 0.00 | 0.00 | 0.00 | 39 | 1016.7 |
| 20260506161007 | 23 | 342 | 1.6 | 4.8 | 0.00 | 0.00 | 0.00 | 38 | 1016.7 |
| 20260506160509 | 23 | 352 | 1.6 | 4.8 | 0.00 | 0.00 | 0.00 | 37 | 1016.7 |
| 20260506160021 | 23 | 9 | 1.6 | 4.8 | 0.00 | 0.00 | 0.00 | 37 | 1016.7 |
| 20260506155511 | 23 | 5 | 1.6 | 4.8 | 0.00 | 0.00 | 0.00 | 37 | 1016.7 |
| 20260506155009 | 23 | 51 | 0.0 | 3.2 | 0.00 | 0.00 | 0.00 | 38 | 1016.8 |
| 20260506154508 | 23 | 15 | 1.6 | 6.4 | 0.00 | 0.00 | 0.00 | 38 | 1016.8 |
| 20260506154003 | 22 | 58 | 1.6 | 6.4 | 0.00 | 0.00 | 0.00 | 38 | 1016.8 |
| 20260506153503 | 22 | 76 | 0.0 | 6.4 | 0.00 | 0.00 | 0.00 | 39 | 1016.8 |
| 20260506153011 | 22 | 81 | 0.0 | 6.4 | 0.00 | 0.00 | 0.00 | 38 | 1016.8 |
| 20260506152503 | 22 | 75 | 1.6 | 6.4 | 0.00 | 0.00 | 0.00 | 38 | 1016.8 |
| 20260506152007 | 23 | 72 | 3.2 | 6.4 | 0.00 | 0.00 | 0.00 | 38 | 1016.9 |
| 20260506151515 | 23 | 71 | 1.6 | 6.4 | 0.00 | 0.00 | 0.00 | 38 | 1016.9 |
| 20260506151008 | 23 | 83 | 3.2 | 6.4 | 0.00 | 0.00 | 0.00 | 36 | 1016.9 |
| 20260506150506 | 23 | 84 | 3.2 | 6.4 | 0.00 | 0.00 | 0.00 | 37 | 1016.9 |
| 20260506150018 | 23 | 74 | 3.2 | 8.0 | 0.00 | 0.00 | 0.00 | 36 | 1016.9 |
| 20260506145510 | 23 | 66 | 1.6 | 8.0 | 0.00 | 0.00 | 0.00 | 36 | 1016.8 |
| 20260506145010 | 23 | 347 | 1.6 | 8.0 | 0.00 | 0.00 | 0.00 | 36 | 1016.9 |
| 20260506144522 | 23 | 342 | 1.6 | 8.0 | 0.00 | 0.00 | 0.00 | 37 | 1016.9 |
| 20260506144007 | 23 | 352 | 3.2 | 8.0 | 0.00 | 0.00 | 0.00 | 36 | 1016.9 |
| 20260506143507 | 23 | 350 | 3.2 | 6.4 | 0.00 | 0.00 | 0.00 | 36 | 1016.9 |
| 20260506143007 | 23 | 17 | 0.0 | 6.4 | 0.00 | 0.00 | 0.00 | 37 | 1016.8 |
| 20260506142503 | 23 | 88 | 3.2 | 6.4 | 0.00 | 0.00 | 0.00 | 37 | 1016.8 |
| 20260506142007 | 23 | 83 | 3.2 | 6.4 | 0.00 | 0.00 | 0.00 | 36 | 1016.8 |
| 20260506141513 | 23 | 75 | 3.2 | 11.3 | 0.00 | 0.00 | 0.00 | 37 | 1016.9 |
| 20260506141007 | 23 | 82 | 1.6 | 11.3 | 0.00 | 0.00 | 0.00 | 37 | 1016.9 |
| 20260506140504 | 23 | 82 | 4.8 | 11.3 | 0.00 | 0.00 | 0.00 | 37 | 1016.9 |
| 20260506140018 | 23 | 71 | 1.6 | 8.0 | 0.00 | 0.00 | 0.00 | 36 | 1016.9 |
| 20260506135508 | 23 | 296 | 0.0 | 8.0 | 0.00 | 0.00 | 0.00 | 36 | 1016.9 |
| 20260506135008 | 23 | 15 | 1.6 | 8.0 | 0.00 | 0.00 | 0.00 | 36 | 1016.9 |
| 20260506134522 | 23 | 5 | 3.2 | 14.5 | 0.00 | 0.00 | 0.00 | 36 | 1016.9 |
| 20260506134008 | 23 | 225 | 3.2 | 14.5 | 0.00 | 0.00 | 0.00 | 36 | 1017.0 |
| 20260506133508 | 23 | 351 | 6.4 | 12.9 | 0.00 | 0.00 | 0.00 | 35 | 1017.0 |
| 20260506133023 | 23 | 336 | 3.2 | 9.7 | 0.00 | 0.00 | 0.00 | 36 | 1017.0 |
| 20260506132512 | 23 | 337 | 3.2 | 9.7 | 0.00 | 0.00 | 0.00 | 35 | 1017.0 |
| 20260506132006 | 23 | 297 | 4.8 | 9.7 | 0.00 | 0.00 | 0.00 | 36 | 1017.0 |
| 20260506131513 | 23 | 352 | 4.8 | 9.7 | 0.00 | 0.00 | 0.00 | 36 | 1016.9 |
| 20260506131006 | 23 | 329 | 1.6 | 6.4 | 0.00 | 0.00 | 0.00 | 36 | 1017.0 |
| 20260506130504 | 23 | 76 | 1.6 | 9.7 | 0.00 | 0.00 | 0.00 | 37 | 1017.0 |
| 20260506130020 | 23 | 82 | 3.2 | 9.7 | 0.00 | 0.00 | 0.00 | 37 | 1017.1 |
| 20260506125507 | 22 | 75 | 1.6 | 6.4 | 0.00 | 0.00 | 0.00 | 39 | 1017.0 |
| 20260506125011 | 22 | 69 | 1.6 | 8.0 | 0.00 | 0.00 | 0.00 | 39 | 1017.0 |
| 20260506124526 | 22 | 94 | 3.2 | 8.0 | 0.00 | 0.00 | 0.00 | 40 | 1017.1 |
| 20260506124008 | 22 | 360 | 3.2 | 6.4 | 0.00 | 0.00 | 0.00 | 42 | 1017.1 |
| 20260506123508 | 22 | 80 | 1.6 | 8.0 | 0.00 | 0.00 | 0.00 | 43 | 1017.2 |
| 20260506123036 | 22 | 32 | 4.8 | 8.0 | 0.00 | 0.00 | 0.00 | 45 | 1017.2 |
| 20260506122509 | 22 | 94 | 3.2 | 9.7 | 0.00 | 0.00 | 0.00 | 45 | 1017.3 |
| 20260506122008 | 21 | 81 | 3.2 | 11.3 | 0.00 | 0.00 | 0.00 | 47 | 1017.3 |
| 20260506121525 | 21 | 84 | 3.2 | 11.3 | 0.00 | 0.00 | 0.00 | 45 | 1017.3 |
| 20260506121008 | 21 | 70 | 4.8 | 8.0 | 0.00 | 0.00 | 0.00 | 46 | 1017.3 |
| 20260506120505 | 21 | 75 | 1.6 | 6.4 | 0.00 | 0.00 | 0.00 | 47 | 1017.4 |
| 20260506120017 | 21 | 93 | 3.2 | 6.4 | 0.00 | 0.00 | 0.00 | 50 | 1017.5 |
| 20260506115509 | 20 | 81 | 1.6 | 8.0 | 0.00 | 0.00 | 0.00 | 50 | 1017.5 |
| 20260506115005 | 20 | 360 | 1.6 | 9.7 | 0.00 | 0.00 | 0.00 | 57 | 1017.6 |
| 20260506114524 | 20 | 360 | 4.8 | 11.3 | 0.00 | 0.00 | 0.00 | 56 | 1017.6 |
| 20260506114007 | 20 | 360 | 3.2 | 12.9 | 0.00 | 0.00 | 0.00 | 54 | 1017.7 |
| 20260506113508 | 21 | 360 | 6.4 | 12.9 | 0.00 | 0.00 | 0.00 | 51 | 1017.7 |
| 20260506113026 | 22 | 360 | 6.4 | 12.9 | 0.00 | 0.00 | 0.00 | 48 | 1017.8 |
| 20260506112508 | 23 | 47 | 3.2 | 8.0 | 0.00 | 0.00 | 0.00 | 46 | 1017.8 |
| 20260506112011 | 23 | 360 | 1.6 | 8.0 | 0.00 | 0.00 | 0.00 | 46 | 1017.8 |
| 20260506111524 | 23 | 360 | 3.2 | 8.0 | 0.00 | 0.00 | 0.00 | 45 | 1017.8 |
| 20260506111007 | 22 | 360 | 0.0 | 12.9 | 0.00 | 0.00 | 0.00 | 46 | 1017.9 |
| 20260506110507 | 22 | 360 | 1.6 | 12.9 | 0.00 | 0.00 | 0.00 | 46 | 1017.8 |
| 20260506110028 | 23 | 360 | 3.2 | 12.9 | 0.00 | 0.00 | 0.00 | 44 | 1017.9 |
| 20260506105510 | 23 | 360 | 1.6 | 8.0 | 0.00 | 0.00 | 0.00 | 42 | 1017.8 |
| 20260506105006 | 23 | 360 | 0.0 | 8.0 | 0.00 | 0.00 | 0.00 | 42 | 1017.8 |
| 20260506104516 | 23 | 360 | 0.0 | 4.8 | 0.00 | 0.00 | 0.00 | 42 | 1017.8 |
| 20260506104009 | 23 | 360 | 0.0 | 8.0 | 0.00 | 0.00 | 0.00 | 42 | 1017.9 |
| 20260506103507 | 22 | 360 | 1.6 | 8.0 | 0.00 | 0.00 | 0.00 | 42 | 1018.0 |
| 20260506103027 | 22 | 360 | 3.2 | 8.0 | 0.00 | 0.00 | 0.00 | 41 | 1018.0 |
| 20260506102511 | 22 | 360 | 1.6 | 6.4 | 0.00 | 0.00 | 0.00 | 42 | 1018.0 |
| 20260506102010 | 22 | 360 | 0.0 | 4.8 | 0.00 | 0.00 | 0.00 | 42 | 1018.1 |
| 20260506101526 | 21 | 360 | 1.6 | 9.7 | 0.00 | 0.00 | 0.00 | 45 | 1018.1 |
| 20260506101008 | 21 | 360 | 1.6 | 9.7 | 0.00 | 0.00 | 0.00 | 46 | 1018.1 |
| 20260506100507 | 20 | 360 | 1.6 | 9.7 | 0.00 | 0.00 | 0.00 | 48 | 1018.1 |
| 20260506100027 | 20 | 360 | 1.6 | 9.7 | 0.00 | 0.00 | 0.00 | 50 | 1018.1 |
| 20260506095507 | 20 | 360 | 1.6 | 11.3 | 0.00 | 0.00 | 0.00 | 53 | 1018.1 |
| 20260506095011 | 19 | 360 | 3.2 | 11.3 | 0.00 | 0.00 | 0.00 | 54 | 1018.3 |
| 20260506094534 | 18 | 114 | 4.8 | 12.9 | 0.00 | 0.00 | 0.00 | 55 | 1018.3 |
| 20260506094012 | 18 | 76 | 4.8 | 12.9 | 0.00 | 0.00 | 0.00 | 55 | 1018.1 |
| 20260506093508 | 18 | 92 | 6.4 | 12.9 | 0.00 | 0.00 | 0.00 | 54 | 1018.3 |
| 20260506093039 | 18 | 57 | 4.8 | 12.9 | 0.00 | 0.00 | 0.00 | 54 | 1018.4 |
| 20260506092506 | 18 | 360 | 6.4 | 12.9 | 0.00 | 0.00 | 0.00 | 55 | 1018.4 |
| 20260506092009 | 18 | 360 | 1.6 | 12.9 | 0.00 | 0.00 | 0.00 | 57 | 1018.5 |
| 20260506091525 | 18 | 360 | 6.4 | 12.9 | 0.00 | 0.00 | 0.00 | 56 | 1018.4 |
| 20260506091010 | 18 | 360 | 4.8 | 11.3 | 0.00 | 0.00 | 0.00 | 54 | 1018.4 |
| 20260506090508 | 18 | 360 | 6.4 | 11.3 | 0.00 | 0.00 | 0.00 | 52 | 1018.5 |
| 20260506090026 | 18 | 360 | 4.8 | 12.9 | 0.00 | 0.00 | 0.00 | 52 | 1018.5 |
| 20260506085509 | 18 | 360 | 4.8 | 12.9 | 0.00 | 0.00 | 0.00 | 53 | 1018.5 |
| 20260506085009 | 18 | 360 | 4.8 | 11.3 | 0.00 | 0.00 | 0.00 | 53 | 1018.6 |
| 20260506084527 | 18 | 57 | 4.8 | 11.3 | 0.00 | 0.00 | 0.00 | 52 | 1018.5 |
| 20260506084009 | 18 | 77 | 4.8 | 11.3 | 0.00 | 0.00 | 0.00 | 50 | 1018.5 |
| 20260506083508 | 18 | 74 | 3.2 | 8.0 | 0.00 | 0.00 | 0.00 | 49 | 1018.5 |
| 20260506083027 | 18 | 360 | 1.6 | 8.0 | 0.00 | 0.00 | 0.00 | 53 | 1018.5 |
| 20260506082515 | 18 | 81 | 1.6 | 6.4 | 0.00 | 0.00 | 0.00 | 53 | 1018.5 |
| 20260506082007 | 18 | 94 | 3.2 | 6.4 | 0.00 | 0.00 | 0.00 | 51 | 1018.5 |
| 20260506081522 | 17 | 360 | 3.2 | 8.0 | 0.00 | 0.00 | 0.00 | 55 | 1018.5 |
| 20260506081009 | 17 | 360 | 4.8 | 8.0 | 0.00 | 0.00 | 0.00 | 54 | 1018.5 |
| 20260506080508 | 17 | 360 | 3.2 | 8.0 | 0.00 | 0.00 | 0.00 | 56 | 1018.5 |
| 20260506073507 | 17 | 360 | 3.2 | 9.7 | 0.00 | 0.00 | 0.00 | 59 | 1018.4 |
| 20260506073028 | 18 | 360 | 3.2 | 9.7 | 0.00 | 0.00 | 0.00 | 58 | 1018.4 |
| 20260506072507 | 18 | 103 | 3.2 | 9.7 | 0.00 | 0.00 | 0.00 | 57 | 1018.3 |
| 20260506072014 | 18 | 360 | 3.2 | 9.7 | 0.00 | 0.00 | 0.00 | 56 | 1018.3 |
| 20260506071526 | 18 | 360 | 3.2 | 8.0 | 0.00 | 0.00 | 0.00 | 54 | 1018.3 |
| 20260506071009 | 18 | 360 | 1.6 | 6.4 | 0.00 | 0.00 | 0.00 | 55 | 1018.2 |
| 20260506070509 | 18 | 360 | 1.6 | 6.4 | 0.00 | 0.00 | 0.00 | 54 | 1018.2 |
| 20260506062511 | 16 | 360 | 3.2 | 9.7 | 0.00 | 0.00 | 0.00 | 61 | 1018.4 |
| 20260506062012 | 16 | 360 | 4.8 | 8.0 | 0.00 | 0.00 | 0.00 | 61 | 1018.4 |
| 20260506061533 | 16 | 360 | 3.2 | 9.7 | 0.00 | 0.00 | 0.00 | 60 | 1018.4 |
| 20260506061012 | 16 | 33 | 4.8 | 9.7 | 0.00 | 0.00 | 0.00 | 60 | 1018.3 |
| 20260506060511 | 16 | 360 | 3.2 | 8.0 | 0.00 | 0.00 | 0.00 | 61 | 1018.3 |
| 20260506051003 | 15 | 360 | 0.0 | 4.8 | 0.00 | 0.00 | 0.00 | 73 | 1018.2 |
| 20260506050507 | 15 | 360 | 1.6 | 4.8 | 0.00 | 0.00 | 0.00 | 75 | 1018.1 |
| 20260506045004 | 13 | 360 | 0.0 | 4.8 | 0.00 | 0.00 | 0.00 | 80 | 1018.1 |
| 20260506044522 | 13 | 360 | 0.0 | 4.8 | 0.00 | 0.00 | 0.00 | 81 | 1018.0 |
| 20260506044006 | 13 | 360 | 0.0 | 3.2 | 0.00 | 0.00 | 0.00 | 81 | 1018.0 |
| 20260506043510 | 12 | 360 | 0.0 | 4.8 | 0.00 | 0.00 | 0.00 | 81 | 1018.0 |
| 20260506043018 | 12 | 360 | 1.6 | 4.8 | 0.00 | 0.00 | 0.00 | 81 | 1018.0 |
| 20260506042508 | 12 | 360 | 0.0 | 4.8 | 0.00 | 0.00 | 0.00 | 82 | 1017.9 |
| 20260506042004 | 12 | 360 | 0.0 | 3.2 | 0.00 | 0.00 | 0.00 | 81 | 1017.9 |
| 20260506041510 | 12 | 360 | 0.0 | 4.8 | 0.00 | 0.00 | 0.00 | 81 | 1017.9 |
| 20260506041004 | 12 | 360 | 1.6 | 6.4 | 0.00 | 0.00 | 0.00 | 82 | 1017.8 |
| 20260506040507 | 12 | 360 | 3.2 | 6.4 | 0.00 | 0.00 | 0.00 | 82 | 1017.8 |
| 20260506040017 | 11 | 360 | 3.2 | 8.0 | 0.00 | 0.00 | 0.00 | 81 | 1017.7 |
| 20260506035507 | 11 | 360 | 4.8 | 8.0 | 0.00 | 0.00 | 0.00 | 81 | 1017.8 |
| 20260506035008 | 11 | 360 | 3.2 | 8.0 | 0.00 | 0.00 | 0.00 | 81 | 1017.7 |
| 20260506034522 | 11 | 360 | 4.8 | 8.0 | 0.00 | 0.00 | 0.00 | 81 | 1017.7 |
| 20260506034008 | 11 | 360 | 1.6 | 8.0 | 0.00 | 0.00 | 0.00 | 81 | 1017.7 |
| 20260506033507 | 11 | 360 | 3.2 | 9.7 | 0.00 | 0.00 | 0.00 | 80 | 1017.6 |
| 20260506033021 | 11 | 360 | 4.8 | 12.9 | 0.00 | 0.00 | 0.00 | 80 | 1017.6 |
| 20260506032504 | 11 | 360 | 6.4 | 12.9 | 0.00 | 0.00 | 0.00 | 80 | 1017.5 |
| 20260506032009 | 11 | 360 | 4.8 | 8.0 | 0.00 | 0.00 | 0.00 | 80 | 1017.4 |
| 20260506031524 | 11 | 360 | 4.8 | 8.0 | 0.00 | 0.00 | 0.00 | 80 | 1017.4 |
| 20260506031008 | 11 | 360 | 3.2 | 9.7 | 0.00 | 0.00 | 0.00 | 79 | 1017.4 |
| 20260506030504 | 11 | 360 | 3.2 | 9.7 | 0.00 | 0.00 | 0.00 | 79 | 1017.4 |
| 20260506030015 | 11 | 360 | 4.8 | 8.0 | 0.00 | 0.00 | 0.00 | 79 | 1017.4 |
| 20260506025509 | 11 | 360 | 3.2 | 8.0 | 0.00 | 0.00 | 0.00 | 79 | 1017.4 |
| 20260506025007 | 11 | 360 | 3.2 | 8.0 | 0.00 | 0.00 | 0.00 | 79 | 1017.4 |
| 20260506024528 | 11 | 360 | 3.2 | 8.0 | 0.00 | 0.00 | 0.00 | 79 | 1017.4 |
| 20260506024010 | 11 | 360 | 3.2 | 8.0 | 0.00 | 0.00 | 0.00 | 79 | 1017.4 |
| 20260506023511 | 11 | 360 | 3.2 | 8.0 | 0.00 | 0.00 | 0.00 | 79 | 1017.4 |
| 20260506023024 | 11 | 360 | 1.6 | 8.0 | 0.00 | 0.00 | 0.00 | 79 | 1017.4 |
| 20260506022508 | 11 | 360 | 3.2 | 8.0 | 0.00 | 0.00 | 0.00 | 79 | 1017.4 |
| 20260506022009 | 11 | 360 | 3.2 | 6.4 | 0.00 | 0.00 | 0.00 | 79 | 1017.4 |
| 20260506021522 | 11 | 360 | 3.2 | 8.0 | 0.00 | 0.00 | 0.00 | 79 | 1017.4 |
| 20260506021005 | 11 | 360 | 4.8 | 8.0 | 0.00 | 0.00 | 0.00 | 78 | 1017.4 |
| 20260506020505 | 11 | 360 | 4.8 | 9.7 | 0.00 | 0.00 | 0.00 | 78 | 1017.4 |
| 20260506020011 | 11 | 360 | 4.8 | 9.7 | 0.00 | 0.00 | 0.00 | 78 | 1017.4 |
| 20260506015504 | 11 | 360 | 4.8 | 8.0 | 0.00 | 0.00 | 0.00 | 78 | 1017.3 |
| 20260506015005 | 11 | 360 | 3.2 | 8.0 | 0.00 | 0.00 | 0.00 | 78 | 1017.3 |
| 20260506014516 | 11 | 360 | 4.8 | 8.0 | 0.00 | 0.00 | 0.00 | 78 | 1017.3 |
| 20260506014004 | 11 | 360 | 1.6 | 8.0 | 0.00 | 0.00 | 0.00 | 78 | 1017.4 |
| 20260506013504 | 11 | 360 | 3.2 | 9.7 | 0.00 | 0.00 | 0.00 | 78 | 1017.3 |
| 20260506013003 | 11 | 360 | 4.8 | 9.7 | 0.00 | 0.00 | 0.00 | 77 | 1017.4 |
| 20260506012504 | 11 | 360 | 4.8 | 8.0 | 0.00 | 0.00 | 0.00 | 77 | 1017.3 |
| 20260506012006 | 11 | 360 | 4.8 | 8.0 | 0.00 | 0.00 | 0.00 | 77 | 1017.3 |
| 20260506011504 | 11 | 360 | 4.8 | 8.0 | 0.00 | 0.00 | 0.00 | 77 | 1017.3 |
| 20260506011004 | 11 | 360 | 4.8 | 8.0 | 0.00 | 0.00 | 0.00 | 76 | 1017.2 |
| 20260506010504 | 12 | 360 | 3.2 | 8.0 | 0.00 | 0.00 | 0.00 | 75 | 1017.3 |
| 20260506010011 | 12 | 360 | 4.8 | 8.0 | 0.00 | 0.00 | 0.00 | 75 | 1017.3 |
| 20260506005506 | 12 | 360 | 4.8 | 9.7 | 0.00 | 0.00 | 0.00 | 75 | 1017.2 |
| 20260506005004 | 12 | 360 | 4.8 | 9.7 | 0.00 | 0.00 | 0.00 | 74 | 1017.2 |
| 20260506004516 | 12 | 360 | 3.2 | 9.7 | 0.00 | 0.00 | 0.00 | 73 | 1017.2 |
| 20260506004007 | 12 | 360 | 4.8 | 9.7 | 0.00 | 0.00 | 0.00 | 73 | 1017.3 |
| 20260506003509 | 12 | 360 | 3.2 | 8.0 | 0.00 | 0.00 | 0.00 | 73 | 1017.3 |
| 20260506003018 | 12 | 360 | 3.2 | 8.0 | 0.00 | 0.00 | 0.00 | 72 | 1017.2 |
| 20260506002506 | 12 | 360 | 4.8 | 8.0 | 0.00 | 0.00 | 0.00 | 72 | 1017.2 |
| 20260506002009 | 12 | 360 | 4.8 | 8.0 | 0.00 | 0.00 | 0.00 | 71 | 1017.2 |
| 20260506001504 | 12 | 360 | 3.2 | 6.4 | 0.00 | 0.00 | 0.00 | 71 | 1017.2 |
| 20260506001004 | 12 | 360 | 3.2 | 6.4 | 0.00 | 0.00 | 0.00 | 71 | 1017.1 |
| 20260506000504 | 12 | 360 | 3.2 | 6.4 | 0.00 | 0.00 | 0.00 | 71 | 1017.2 |
| 20260506000008 | 12 | 360 | 1.6 | 4.8 | 0.00 | 0.00 | 0.00 | 70 | 1017.2 |
| 20260505235506 | 12 | 360 | 1.6 | 3.2 | 0.00 | 0.00 | 0.00 | 70 | 1017.2 |
| 20260505235005 | 12 | 360 | 0.0 | 4.8 | 0.00 | 0.00 | 0.00 | 70 | 1017.1 |
| 20260505234531 | 12 | 360 | 1.6 | 6.4 | 0.00 | 0.00 | 0.00 | 70 | 1017.2 |
| 20260505234008 | 12 | 360 | 0.0 | 6.4 | 0.00 | 0.00 | 0.00 | 70 | 1017.2 |
| 20260505233505 | 12 | 360 | 3.2 | 8.0 | 0.00 | 0.00 | 0.00 | 70 | 1017.2 |
| 20260505233020 | 12 | 360 | 4.8 | 8.0 | 0.00 | 0.00 | 0.00 | 70 | 1017.2 |
| 20260505232506 | 12 | 360 | 3.2 | 8.0 | 0.00 | 0.00 | 0.00 | 70 | 1017.2 |
| 20260505232008 | 12 | 360 | 4.8 | 8.0 | 0.00 | 0.00 | 0.00 | 70 | 1017.2 |
| 20260505231521 | 12 | 360 | 3.2 | 8.0 | 0.00 | 0.00 | 0.00 | 70 | 1017.2 |
| 20260505231005 | 12 | 360 | 4.8 | 8.0 | 0.00 | 0.00 | 0.00 | 71 | 1017.2 |
| 20260505230505 | 12 | 360 | 4.8 | 8.0 | 0.00 | 0.00 | 0.00 | 71 | 1017.2 |
| 20260505230005 | 12 | 360 | 3.2 | 9.7 | 0.00 | 0.00 | 0.00 | 71 | 1017.2 |
| 20260505225505 | 12 | 360 | 6.4 | 9.7 | 0.00 | 0.00 | 0.00 | 71 | 1017.2 |
| 20260505225004 | 12 | 360 | 4.8 | 8.0 | 0.00 | 0.00 | 0.00 | 71 | 1017.2 |
| 20260505224508 | 12 | 360 | 3.2 | 8.0 | 0.00 | 0.00 | 0.00 | 71 | 1017.2 |
| 20260505224007 | 12 | 360 | 0.0 | 8.0 | 0.00 | 0.00 | 0.00 | 71 | 1017.2 |
| 20260505223504 | 12 | 360 | 3.2 | 4.8 | 0.00 | 0.00 | 0.00 | 72 | 1017.2 |
| 20260505223014 | 13 | 360 | 0.0 | 8.0 | 0.00 | 0.00 | 0.00 | 72 | 1017.3 |
| 20260505222506 | 13 | 360 | 3.2 | 8.0 | 0.00 | 0.00 | 0.00 | 71 | 1017.3 |
| 20260505222006 | 13 | 360 | 1.6 | 8.0 | 0.00 | 0.00 | 0.00 | 71 | 1017.4 |
| 20260505221520 | 13 | 360 | 3.2 | 8.0 | 0.00 | 0.00 | 0.00 | 71 | 1017.3 |
| 20260505221010 | 13 | 360 | 3.2 | 8.0 | 0.00 | 0.00 | 0.00 | 71 | 1017.4 |
| 20260505220510 | 13 | 360 | 3.2 | 8.0 | 0.00 | 0.00 | 0.00 | 71 | 1017.4 |
| 20260505220024 | 13 | 360 | 3.2 | 8.0 | 0.00 | 0.00 | 0.00 | 71 | 1017.4 |
| 20260505215508 | 13 | 360 | 3.2 | 8.0 | 0.00 | 0.00 | 0.00 | 71 | 1017.4 |
| 20260505215007 | 13 | 360 | 3.2 | 9.7 | 0.00 | 0.00 | 0.00 | 71 | 1017.4 |
| 20260505214509 | 13 | 360 | 4.8 | 9.7 | 0.00 | 0.00 | 0.00 | 71 | 1017.4 |
| 20260505214007 | 13 | 360 | 4.8 | 9.7 | 0.00 | 0.00 | 0.00 | 71 | 1017.4 |
| 20260505213503 | 13 | 360 | 4.8 | 9.7 | 0.00 | 0.00 | 0.00 | 70 | 1017.4 |
| 20260505213013 | 13 | 360 | 4.8 | 9.7 | 0.00 | 0.00 | 0.00 | 70 | 1017.4 |
| 20260505212504 | 13 | 360 | 6.4 | 9.7 | 0.00 | 0.00 | 0.00 | 70 | 1017.5 |
| 20260505212007 | 13 | 360 | 4.8 | 9.7 | 0.00 | 0.00 | 0.00 | 71 | 1017.5 |
| 20260505211517 | 14 | 360 | 1.6 | 8.0 | 0.00 | 0.00 | 0.00 | 71 | 1017.4 |
| 20260505211011 | 14 | 360 | 4.8 | 8.0 | 0.00 | 0.00 | 0.00 | 71 | 1017.3 |
| 20260505210505 | 14 | 360 | 4.8 | 8.0 | 0.00 | 0.00 | 0.00 | 71 | 1017.3 |
| 20260505210023 | 14 | 360 | 4.8 | 9.7 | 0.00 | 0.00 | 0.00 | 72 | 1017.4 |
| 20260505205507 | 14 | 360 | 4.8 | 9.7 | 0.00 | 0.00 | 0.00 | 72 | 1017.4 |
| 20260505205012 | 14 | 360 | 4.8 | 9.7 | 0.00 | 0.00 | 0.00 | 72 | 1017.4 |
| 20260505204528 | 14 | 360 | 4.8 | 9.7 | 0.00 | 0.00 | 0.00 | 72 | 1017.3 |
| 20260505204007 | 14 | 360 | 4.8 | 9.7 | 0.00 | 0.00 | 0.00 | 71 | 1017.3 |
| 20260505203510 | 14 | 360 | 4.8 | 9.7 | 0.00 | 0.00 | 0.00 | 71 | 1017.4 |
| 20260505203008 | 14 | 360 | 4.8 | 9.7 | 0.00 | 0.00 | 0.00 | 70 | 1017.3 |
| 20260505202504 | 14 | 360 | 4.8 | 8.0 | 0.00 | 0.00 | 0.00 | 70 | 1017.3 |
| 20260505202005 | 15 | 360 | 3.2 | 6.4 | 0.00 | 0.00 | 0.00 | 70 | 1017.2 |
| 20260505201512 | 15 | 360 | 1.6 | 6.4 | 0.00 | 0.00 | 0.00 | 69 | 1017.2 |
| 20260505201004 | 15 | 360 | 1.6 | 6.4 | 0.00 | 0.00 | 0.00 | 69 | 1017.2 |
| 20260505200510 | 15 | 360 | 1.6 | 6.4 | 0.00 | 0.00 | 0.00 | 68 | 1017.2 |
| 20260505200024 | 15 | 360 | 3.2 | 8.0 | 0.00 | 0.00 | 0.00 | 68 | 1017.2 |
| 20260505195509 | 15 | 360 | 3.2 | 8.0 | 0.00 | 0.00 | 0.00 | 67 | 1017.3 |
| 20260505195009 | 15 | 360 | 3.2 | 6.4 | 0.00 | 0.00 | 0.00 | 67 | 1017.2 |
| 20260505194524 | 15 | 360 | 3.2 | 6.4 | 0.00 | 0.00 | 0.00 | 66 | 1017.3 |
| 20260505194011 | 15 | 360 | 1.6 | 8.0 | 0.00 | 0.00 | 0.00 | 65 | 1017.3 |
| 20260505193507 | 15 | 360 | 1.6 | 8.0 | 0.00 | 0.00 | 0.00 | 65 | 1017.2 |